TimeCST,TemperatureF,Dew PointF,Humidity,Sea Level PressureIn,VisibilityMPH,Wind Direction,Wind SpeedMPH,Gust SpeedMPH,PrecipitationIn,Events,Conditions,WindDirDegrees,DateUTC
12:15 AM,11.1,6.8,83,29.57,3.0,WNW,3.5,-,N/A,Snow,Light Snow,300,2014-01-17 06:15:00
12:35 AM,11.3,7.3,84,29.57,2.5,WNW,3.5,-,N/A,Snow,Light Snow,300,2014-01-17 06:35:00
12:55 AM,12.0,7.7,83,29.57,1.8,WNW,3.5,-,N/A,Snow,Light Snow,300,2014-01-17 06:55:00
1:15 AM,12.6,8.6,84,29.58,2.0,NW,4.6,-,N/A,Snow,Light Snow,310,2014-01-17 07:15:00
1:35 AM,13.3,9.5,85,29.59,4.0,WNW,3.5,-,N/A,Snow,Light Snow,300,2014-01-17 07:35:00
1:55 AM,14.4,10.4,84,29.59,3.0,NW,4.6,-,N/A,Snow,Light Snow,320,2014-01-17 07:55:00
2:15 AM,15.6,11.8,85,29.59,3.0,NNW,8.1,-,N/A,Snow,Light Snow,340,2014-01-17 08:15:00
2:35 AM,16.7,13.1,86,29.60,4.0,NNW,9.2,-,N/A,Snow,Light Snow,330,2014-01-17 08:35:00
2:55 AM,18.0,13.6,83,29.60,5.0,North,11.5,-,N/A,Snow,Light Snow,350,2014-01-17 08:55:00
3:15 AM,18.1,13.3,81,29.61,3.0,North,12.7,20.7,N/A,Snow,Light Snow,360,2014-01-17 09:15:00
3:35 AM,17.6,12.9,82,29.62,4.0,North,15.0,19.6,N/A,Snow,Light Snow,350,2014-01-17 09:35:00
3:55 AM,17.1,12.0,81,29.63,3.0,North,13.8,23.0,N/A,Snow,Light Snow,360,2014-01-17 09:55:00
4:15 AM,16.7,11.7,81,29.64,4.0,North,12.7,24.2,N/A,Snow,Light Snow,360,2014-01-17 10:15:00
4:35 AM,16.5,11.3,80,29.64,3.0,North,13.8,25.3,N/A,Snow,Light Snow,10,2014-01-17 10:35:00
4:55 AM,16.5,12.0,82,29.65,3.0,North,12.7,-,N/A,Snow,Light Snow,350,2014-01-17 10:55:00
5:15 AM,16.3,11.3,81,29.65,3.0,North,12.7,-,N/A,Snow,Light Snow,360,2014-01-17 11:15:00
5:35 AM,16.2,11.1,81,29.66,4.0,North,11.5,17.3,N/A,Snow,Light Snow,350,2014-01-17 11:35:00
5:55 AM,15.8,10.9,81,29.67,4.0,North,15.0,20.7,N/A,Snow,Light Snow,350,2014-01-17 11:55:00
6:15 AM,15.8,10.8,80,29.68,4.0,North,12.7,20.7,N/A,Snow,Light Snow,360,2014-01-17 12:15:00
6:35 AM,15.6,10.8,81,29.69,2.5,North,15.0,-,N/A,Snow,Light Snow,350,2014-01-17 12:35:00
6:55 AM,15.4,10.4,80,29.69,4.0,North,16.1,19.6,N/A,Snow,Light Snow,360,2014-01-17 12:55:00
7:15 AM,14.9,9.5,79,29.70,2.5,North,15.0,25.3,N/A,Snow,Light Snow,360,2014-01-17 13:15:00
7:35 AM,14.4,8.4,77,29.71,4.0,North,13.8,18.4,N/A,Snow,Light Snow,360,2014-01-17 13:35:00
7:55 AM,13.8,8.1,78,29.72,7.0,North,11.5,-,N/A,Snow,Light Snow,350,2014-01-17 13:55:00
8:15 AM,13.1,7.7,79,29.72,4.0,North,11.5,16.1,N/A,Snow,Light Snow,350,2014-01-17 14:15:00
8:35 AM,12.6,7.3,80,29.73,5.0,North,10.4,-,N/A,Snow,Light Snow,350,2014-01-17 14:35:00
8:55 AM,13.1,7.7,79,29.75,7.0,North,10.4,17.3,N/A,Snow,Light Snow,350,2014-01-17 14:55:00
9:15 AM,14.5,8.6,77,29.75,7.0,North,10.4,18.4,N/A,Snow,Light Snow,360,2014-01-17 15:15:00
9:35 AM,14.0,8.4,78,29.76,2.0,North,10.4,18.4,N/A,Snow,Light Snow,10,2014-01-17 15:35:00
9:55 AM,14.0,8.4,78,29.77,2.5,North,11.5,-,N/A,Snow,Light Snow,350,2014-01-17 15:55:00
10:15 AM,14.9,7.7,73,29.77,5.0,North,15.0,25.3,N/A,,Haze,360,2014-01-17 16:15:00
10:35 AM,15.8,8.6,73,29.78,7.0,North,9.2,-,N/A,Snow,Light Snow,360,2014-01-17 16:35:00
10:55 AM,15.3,8.4,74,29.78,7.0,North,10.4,16.1,N/A,Snow,Light Snow,350,2014-01-17 16:55:00
11:15 AM,15.4,8.4,74,29.79,5.0,North,10.4,-,N/A,Snow,Light Snow,350,2014-01-17 17:15:00
11:35 AM,16.2,8.8,73,29.79,7.0,North,9.2,-,N/A,Snow,Light Snow,350,2014-01-17 17:35:00
11:55 AM,16.5,9.0,72,29.79,7.0,NNW,16.1,20.7,N/A,Snow,Light Snow,340,2014-01-17 17:55:00
12:15 PM,15.8,8.4,73,29.78,7.0,North,15.0,20.7,N/A,Snow,Light Snow,350,2014-01-17 18:15:00
12:35 PM,16.3,8.6,72,29.78,7.0,North,12.7,18.4,N/A,Snow,Light Snow,350,2014-01-17 18:35:00
12:55 PM,15.4,8.2,73,29.78,10.0,North,12.7,-,N/A,Snow,Light Snow,360,2014-01-17 18:55:00
1:15 PM,15.8,8.2,72,29.78,10.0,NNW,12.7,18.4,N/A,Snow,Light Snow,340,2014-01-17 19:15:00
1:35 PM,16.2,8.1,70,29.78,10.0,North,10.4,20.7,N/A,Snow,Light Snow,360,2014-01-17 19:35:00
1:55 PM,15.8,8.8,74,29.79,5.0,NNW,10.4,-,N/A,Snow,Light Snow,330,2014-01-17 19:55:00
2:15 PM,16.0,7.7,70,29.79,10.0,NNW,12.7,-,N/A,Snow,Light Snow,340,2014-01-17 20:15:00
2:35 PM,14.7,7.7,74,29.79,10.0,NNW,11.5,-,N/A,Snow,Light Snow,330,2014-01-17 20:35:00
2:55 PM,14.5,7.3,73,29.80,10.0,North,10.4,-,N/A,Snow,Light Snow,360,2014-01-17 20:55:00
3:15 PM,14.9,7.2,71,29.80,10.0,NNW,13.8,-,N/A,Snow,Light Snow,330,2014-01-17 21:15:00
3:35 PM,13.8,6.3,72,29.81,10.0,North,12.7,-,N/A,Snow,Light Snow,350,2014-01-17 21:35:00
3:55 PM,13.1,6.6,75,29.81,7.0,North,10.4,-,N/A,Snow,Light Snow,350,2014-01-17 21:55:00
4:15 PM,12.7,6.3,75,29.81,10.0,North,11.5,-,N/A,Snow,Light Snow,350,2014-01-17 22:15:00
4:35 PM,12.9,5.9,74,29.82,10.0,North,10.4,17.3,N/A,Snow,Light Snow,350,2014-01-17 22:35:00
4:55 PM,12.6,5.7,74,29.82,10.0,North,9.2,-,N/A,,Overcast,350,2014-01-17 22:55:00
5:15 PM,12.2,5.5,75,29.82,10.0,NNW,10.4,-,N/A,Snow,Light Snow,340,2014-01-17 23:15:00
5:35 PM,12.2,5.4,74,29.82,10.0,Calm,Calm,-,N/A,,Overcast,0,2014-01-17 23:35:00
5:55 PM,11.8,5.9,77,29.83,7.0,Calm,Calm,-,N/A,Snow,Light Snow,0,2014-01-17 23:55:00
6:15 PM,11.7,5.7,77,29.83,10.0,Calm,Calm,-,N/A,Snow,Light Snow,0,2014-01-18 00:15:00
6:35 PM,11.3,5.5,78,29.83,10.0,Calm,Calm,-,N/A,Snow,Light Snow,0,2014-01-18 00:35:00
6:55 PM,11.3,5.7,78,29.84,7.0,Calm,Calm,-,N/A,Snow,Light Snow,0,2014-01-18 00:55:00
7:15 PM,11.3,5.5,78,29.83,7.0,Calm,Calm,-,N/A,Snow,Light Snow,0,2014-01-18 01:15:00
7:35 PM,11.1,5.5,78,29.83,7.0,Calm,Calm,-,N/A,Snow,Light Snow,0,2014-01-18 01:35:00
7:55 PM,10.9,5.2,78,29.82,10.0,Calm,Calm,-,N/A,Snow,Light Snow,0,2014-01-18 01:55:00
8:15 PM,10.9,5.0,77,29.82,7.0,Calm,Calm,-,N/A,Snow,Light Snow,0,2014-01-18 02:15:00
8:35 PM,10.9,5.5,79,29.82,7.0,Calm,Calm,-,N/A,Snow,Light Snow,0,2014-01-18 02:35:00
8:55 PM,10.9,5.0,77,29.82,7.0,Calm,Calm,-,N/A,Snow,Light Snow,0,2014-01-18 02:55:00
9:15 PM,10.9,5.0,77,29.82,10.0,Calm,Calm,-,N/A,Snow,Light Snow,0,2014-01-18 03:15:00
9:35 PM,10.8,5.0,78,29.81,5.0,Calm,Calm,-,N/A,Snow,Light Snow,0,2014-01-18 03:35:00
9:55 PM,10.4,5.0,79,29.81,10.0,Calm,Calm,-,N/A,Snow,Light Snow,0,2014-01-18 03:55:00
10:15 PM,10.4,4.8,78,29.80,10.0,Calm,Calm,-,N/A,Snow,Light Snow,0,2014-01-18 04:15:00
10:35 PM,10.4,5.2,79,29.79,7.0,Calm,Calm,-,N/A,Snow,Light Snow,0,2014-01-18 04:35:00
10:55 PM,9.9,4.6,79,29.79,10.0,Calm,Calm,-,N/A,Snow,Light Snow,0,2014-01-18 04:55:00
11:15 PM,9.5,4.5,80,29.77,10.0,Calm,Calm,-,N/A,,Overcast,0,2014-01-18 05:15:00
11:35 PM,8.6,4.1,82,29.76,10.0,Calm,Calm,-,N/A,Snow,Light Snow,0,2014-01-18 05:35:00
11:55 PM,7.3,3.6,85,29.76,10.0,Calm,Calm,-,N/A,,Overcast,0,2014-01-18 05:55:00